Location: Newark
(49.5647°N, 8.2922°E)
Time: 09:10:32
(UTC+00:00)

Transit 2A - Pass Details

Date: 18 February 2020
Orbit: 597 x 961 km, 66.7° (Epoch: 28 March)

Event Time Altitude Azimuth Distance (km) Brightness Sun altitude
Rises 14:29:41 0° 230° (SW) 2,832 10.6 18.4°
Reaches altitude 10° 14:31:57 10° 236° (WSW) 1,931 10.1 18.2°
Maximum altitude 14:36:08 49° 313° (NW) 782 6.4 17.7°
Drops below altitude 10° 14:40:30 10° 29° (NNE) 2,012 7.7 17.2°
Sets 14:42:55 0° 35° (NE) 2,964 8.4 16.9°
